TimeEDT,TemperatureF,Dew PointF,Humidity,Sea Level PressureIn,VisibilityMPH,Wind Direction,Wind SpeedMPH,Gust SpeedMPH,PrecipitationIn,Events,Conditions,WindDirDegrees,DateUTC
12:15 AM,60.8,60.8,100,30.02,5.0,Calm,Calm,-,N/A,,Scattered Clouds,0,2013-05-11 04:15:00
12:35 AM,60.8,60.8,100,30.01,5.0,Calm,Calm,-,N/A,,Mostly Cloudy,0,2013-05-11 04:35:00
12:55 AM,60.8,60.8,100,30.00,2.0,Calm,Calm,-,N/A,,Mostly Cloudy,0,2013-05-11 04:55:00
1:15 AM,60.8,60.8,100,30.00,2.5,Calm,Calm,-,N/A,,Scattered Clouds,0,2013-05-11 05:15:00
1:35 AM,60.8,60.8,100,29.99,2.0,Calm,Calm,-,N/A,,Overcast,0,2013-05-11 05:35:00
1:55 AM,60.8,60.8,100,29.99,2.0,Calm,Calm,-,N/A,,Mostly Cloudy,0,2013-05-11 05:55:00
2:15 AM,60.8,60.8,100,29.98,2.5,Calm,Calm,-,N/A,,Overcast,0,2013-05-11 06:15:00
2:35 AM,60.8,60.8,100,29.98,1.8,Calm,Calm,-,N/A,Rain,Light Rain,0,2013-05-11 06:35:00
2:55 AM,60.8,60.8,100,29.97,1.5,West,3.5,-,N/A,,Light Drizzle,280,2013-05-11 06:55:00
3:15 AM,60.8,60.8,100,29.97,0.5,Calm,Calm,-,N/A,Fog,Fog,0,2013-05-11 07:15:00
3:35 AM,60.8,60.8,100,29.96,0.2,Calm,Calm,-,N/A,Fog,Fog,0,2013-05-11 07:35:00
3:55 AM,60.8,60.8,100,29.96,1.0,Calm,Calm,-,N/A,,Overcast,0,2013-05-11 07:55:00
4:15 AM,60.8,60.8,100,29.95,1.2,Calm,Calm,-,N/A,,Overcast,0,2013-05-11 08:15:00
4:35 AM,60.8,60.8,100,29.96,1.8,Calm,Calm,-,N/A,,Overcast,0,2013-05-11 08:35:00
4:55 AM,60.8,60.8,100,29.95,2.5,Calm,Calm,-,N/A,,Overcast,0,2013-05-11 08:55:00
5:15 AM,60.8,60.8,100,29.95,1.8,Calm,Calm,-,N/A,,Overcast,0,2013-05-11 09:15:00
5:35 AM,60.8,60.8,100,29.93,3.0,Calm,Calm,-,N/A,,Overcast,0,2013-05-11 09:35:00
5:55 AM,60.8,60.8,100,29.94,2.5,Calm,Calm,-,N/A,,Overcast,0,2013-05-11 09:55:00
6:15 AM,60.8,60.8,100,29.95,2.5,Calm,Calm,-,N/A,,Overcast,0,2013-05-11 10:15:00
6:35 AM,60.8,60.8,100,29.94,2.0,Calm,Calm,-,N/A,,Mostly Cloudy,0,2013-05-11 10:35:00
6:55 AM,60.8,60.8,100,29.95,1.5,Calm,Calm,-,N/A,,Overcast,0,2013-05-11 10:55:00
7:15 AM,60.8,60.8,100,29.95,2.0,Calm,Calm,-,N/A,,Overcast,0,2013-05-11 11:15:00
7:35 AM,60.8,60.8,100,29.95,1.5,Calm,Calm,-,N/A,,Mostly Cloudy,0,2013-05-11 11:35:00
7:55 AM,60.8,60.8,100,29.94,2.0,Calm,Calm,-,N/A,,Overcast,0,2013-05-11 11:55:00
8:15 AM,62.6,62.6,100,29.95,3.0,West,3.5,-,N/A,Rain,Light Rain,270,2013-05-11 12:15:00
8:35 AM,62.6,62.6,100,29.95,4.0,West,3.5,-,N/A,Rain,Rain,280,2013-05-11 12:35:00
8:55 AM,62.6,62.6,100,29.95,3.0,West,4.6,-,0.01,Rain,Rain,270,2013-05-11 12:55:00
9:15 AM,62.6,62.6,100,29.95,3.0,West,4.6,-,N/A,Rain,Light Rain,280,2013-05-11 13:15:00
9:35 AM,62.6,62.6,100,29.95,7.0,WSW,5.8,-,0.01,Rain,Light Rain,240,2013-05-11 13:35:00
9:55 AM,62.6,62.6,100,29.95,7.0,WSW,5.8,-,0.02,Rain,Light Rain,240,2013-05-11 13:55:00
10:15 AM,64.4,64.4,100,29.94,7.0,SW,4.6,-,N/A,Rain,Light Rain,220,2013-05-11 14:15:00
10:35 AM,64.4,64.4,100,29.94,10.0,WSW,4.6,-,N/A,,Light Drizzle,250,2013-05-11 14:35:00
10:55 AM,66.2,64.4,94,29.94,10.0,West,6.9,-,N/A,,Scattered Clouds,260,2013-05-11 14:55:00
11:15 AM,66.2,64.4,94,29.95,10.0,WSW,9.2,-,N/A,,Mostly Cloudy,250,2013-05-11 15:15:00
11:35 AM,66.2,64.4,94,29.94,10.0,WSW,4.6,-,N/A,,Overcast,250,2013-05-11 15:35:00
11:55 AM,68.0,64.4,88,29.94,10.0,West,6.9,-,N/A,,Overcast,260,2013-05-11 15:55:00
12:15 PM,66.2,62.6,88,29.94,10.0,Calm,Calm,-,N/A,,Overcast,0,2013-05-11 16:15:00
12:35 PM,64.4,62.6,94,29.94,5.0,WNW,3.5,-,0.03,Rain,Light Rain,290,2013-05-11 16:35:00
12:55 PM,64.4,64.4,100,29.94,7.0,Calm,Calm,-,0.03,Rain,Rain,0,2013-05-11 16:55:00
1:15 PM,62.6,62.6,100,29.94,10.0,WNW,3.5,-,0.13,Rain,Light Rain,290,2013-05-11 17:15:00
1:35 PM,66.2,66.2,100,29.93,10.0,WSW,4.6,-,0.15,,Mostly Cloudy,240,2013-05-11 17:35:00
1:55 PM,68.0,64.4,88,29.92,10.0,NNW,13.8,-,0.15,,Mostly Cloudy,330,2013-05-11 17:55:00
2:15 PM,64.4,64.4,100,29.92,10.0,West,4.6,-,N/A,,Mostly Cloudy,280,2013-05-11 18:15:00
2:35 PM,66.2,64.4,94,29.92,10.0,West,3.5,-,N/A,,Mostly Cloudy,270,2013-05-11 18:35:00
2:55 PM,68.0,64.4,88,29.91,10.0,West,4.6,-,N/A,,Mostly Cloudy,260,2013-05-11 18:55:00
3:15 PM,69.8,64.4,83,29.90,10.0,WSW,5.8,-,N/A,,Scattered Clouds,250,2013-05-11 19:15:00
3:35 PM,71.6,64.4,78,29.88,10.0,West,3.5,-,N/A,,Clear,270,2013-05-11 19:35:00
3:55 PM,71.6,62.6,73,29.88,10.0,West,8.1,-,N/A,,Scattered Clouds,280,2013-05-11 19:55:00
4:15 PM,71.6,62.6,73,29.88,10.0,West,5.8,-,N/A,,Mostly Cloudy,260,2013-05-11 20:15:00
4:35 PM,73.4,62.6,69,29.87,7.0,West,5.8,-,N/A,,Scattered Clouds,260,2013-05-11 20:35:00
4:55 PM,73.4,60.8,65,29.86,10.0,SW,5.8,-,N/A,,Scattered Clouds,230,2013-05-11 20:55:00
5:15 PM,73.4,60.8,65,29.86,10.0,WSW,5.8,-,N/A,,Scattered Clouds,250,2013-05-11 21:15:00
5:35 PM,71.6,60.8,69,29.85,10.0,WSW,3.5,-,N/A,,Mostly Cloudy,250,2013-05-11 21:35:00
5:55 PM,64.4,59.0,83,29.89,10.0,WNW,11.5,25.3,N/A,Rain-Thunderstorm,Light Thunderstorms and Rain,300,2013-05-11 21:55:00
6:15 PM,62.6,60.8,94,29.89,10.0,WNW,8.1,-,0.01,,Overcast,290,2013-05-11 22:15:00
6:35 PM,62.6,60.8,94,29.89,7.0,WNW,8.1,-,0.01,Rain,Rain,290,2013-05-11 22:35:00
6:55 PM,60.8,60.8,100,29.87,10.0,WNW,4.6,-,0.01,,Drizzle,290,2013-05-11 22:55:00
7:15 PM,62.6,62.6,100,29.87,10.0,WNW,4.6,-,N/A,,Overcast,300,2013-05-11 23:15:00
7:35 PM,60.8,60.8,100,29.87,10.0,WNW,5.8,-,N/A,,Scattered Clouds,290,2013-05-11 23:35:00
7:55 PM,60.8,60.8,100,29.88,10.0,WSW,4.6,-,N/A,,Clear,250,2013-05-11 23:55:00
8:15 PM,60.8,60.8,100,29.88,10.0,West,3.5,-,N/A,,Clear,260,2013-05-12 00:15:00
8:35 PM,60.8,60.8,100,29.89,10.0,Calm,Calm,-,N/A,,Clear,0,2013-05-12 00:35:00
8:55 PM,60.8,60.8,100,29.89,10.0,Calm,Calm,-,N/A,,Clear,0,2013-05-12 00:55:00
9:15 PM,59.0,59.0,100,29.90,10.0,Calm,Calm,-,N/A,,Scattered Clouds,0,2013-05-12 01:15:00
9:35 PM,60.8,60.8,100,29.91,10.0,WNW,5.8,-,N/A,,Mostly Cloudy,290,2013-05-12 01:35:00
9:55 PM,60.8,60.8,100,29.91,10.0,Calm,Calm,-,N/A,,Overcast,0,2013-05-12 01:55:00
10:15 PM,60.8,60.8,100,29.91,10.0,WNW,4.6,-,N/A,,Overcast,290,2013-05-12 02:15:00
10:35 PM,60.8,60.8,100,29.91,10.0,WNW,5.8,-,N/A,,Scattered Clouds,290,2013-05-12 02:35:00
10:55 PM,60.8,59.0,94,29.91,10.0,West,4.6,-,N/A,,Scattered Clouds,280,2013-05-12 02:55:00
11:15 PM,60.8,57.2,88,29.91,10.0,West,5.8,-,N/A,,Scattered Clouds,270,2013-05-12 03:15:00
11:35 PM,59.0,57.2,94,29.91,10.0,WNW,8.1,-,N/A,,Scattered Clouds,300,2013-05-12 03:35:00
11:55 PM,57.2,55.4,94,29.91,10.0,West,9.2,-,N/A,,Clear,280,2013-05-12 03:55:00